Flight Track Log - Related Links

Times and Time Zones

All times are in EDT time to prevent confusion due to time zone crossing. See the OPT429 flight status page for this flight to view local times or setup timezone preferences in your user account.

Time Position Orientation Groundspeed Altitude Reporting Facility
EDT Latitude Longitude Course Direction KTS MPH feet Rate Location/Type
Thu 07:53:06 AM 39.1167 -94.6000 224° Southwest 171 197 1,500  Level Kansas City TRACON
Thu 07:54:10 AM 39.0831 -94.6411 224° Southwest 167 192 4,300 2,400 Climbing Kansas City Center
Thu 07:55:11 AM 39.0869 -94.7103 274° West 213 245 6,500 1,918 Climbing Kansas City Center
Thu 07:56:12 AM 39.1150 -94.7978 292° West 268 308 8,200 2,016 Climbing Kansas City Center
Thu 07:57:13 AM 39.1469 -94.8953 293° West 290 334 10,600 2,033 Climbing Kansas City Center
Thu 07:58:13 AM 39.1803 -94.9989 293° West 313 360 12,300 1,884 Climbing Kansas City Center
Thu 07:59:14 AM 39.2203 -95.1250 292° West 337 388 14,400 2,032 Climbing Kansas City Center
Thu 08:00:17 AM 39.2572 -95.2456 292° West 345 397 16,500 1,839 Climbing Kansas City Center
Thu 08:01:18 AM 39.2942 -95.3689 291° West 352 405 18,200 1,574 Climbing Kansas City Center
Thu 08:02:19 AM 39.2969 -95.4833 272° West 354 407 19,700 1,512 Climbing Kansas City Center
Thu 08:03:21 AM 39.2983 -95.6111 271° West 356 410 21,300 1,561 Climbing Kansas City Center
Thu 08:04:22 AM 39.2994 -95.7411 271° West 361 415 22,900 1,574 Climbing Kansas City Center
Thu 08:05:23 AM 39.3011 -95.8742 271° West 367 422 24,500 1,574 Climbing Kansas City Center
Thu 08:06:24 AM 39.3022 -96.0075 271° West 369 425 26,100 1,525 Climbing Kansas City Center
Thu 08:07:25 AM 39.3036 -96.1669 271° West 370 426 27,600 1,240 Climbing Kansas City Center
Thu 08:08:25 AM 39.3036 -96.2828 270° West 375 432 28,600 1,230 Climbing Kansas City Center
Thu 08:09:27 AM 39.3050 -96.4483 271° West 382 440 30,100 1,488 Climbing Kansas City Center
Thu 08:10:30 AM 39.3050 -96.5778 270° West 384 442 31,700 1,500 Climbing Kansas City Center
Thu 08:11:31 AM 39.3058 -96.7117 271° West 379 436 33,200 1,426 Climbing Kansas City Center
Thu 08:12:32 AM 39.3058 -96.8456 270° West 378 435 34,600 1,268 Climbing Kansas City Center
Thu 08:13:34 AM 39.3064 -96.9797 270° West 378 435 35,800 1,171 Climbing Kansas City Center
Thu 08:14:35 AM 39.3069 -97.1139 270° West 378 435 37,000 1,131 Climbing Kansas City Center
Thu 08:15:36 AM 39.3064 -97.2469 270° West 377 434 38,100 1,230 Climbing Kansas City Center
Thu 08:16:37 AM 39.3053 -97.4033 270° West 368 423 39,500 984 Climbing Kansas City Center
Thu 08:17:38 AM 39.3050 -97.5342 270° West 366 421 40,100 732 Climbing Kansas City Center
Thu 08:18:40 AM 39.3036 -97.6758 269° West 366 421 41,000 780 Climbing Kansas City Center
Thu 08:19:41 AM 39.3019 -97.8028 269° West 358 412 41,700 484 Climbing Kansas City Center
Thu 08:20:44 AM 39.3025 -97.9172 270° West 357 411 42,000 288 Climbing Kansas City Center
Thu 08:21:46 AM 39.3017 -98.0458 270° West 356 410 42,300 300 Climbing Kansas City Center
Thu 08:22:44 AM 39.3006 -98.1778 269° West 364 419 42,600 344 Climbing Kansas City Center
Thu 08:23:48 AM 39.2981 -98.3292 269° West 378 435 43,000 194 Climbing Kansas City Center
Thu 08:24:48 AM 39.2958 -98.4625 269° West 374 430 43,000  Level Kansas City Center
Thu 08:25:49 AM 39.2961 -98.6067 270° West 371 427 43,000  Level Kansas City Center
Thu 08:26:52 AM 39.2939 -98.7436 269° West 376 433 43,000  Level Kansas City Center
Thu 08:27:53 AM 39.2917 -98.8778 269° West 376 433 43,000  Level Kansas City Center
Thu 08:28:56 AM 39.2883 -99.0169 268° West 380 437 43,000  Level Kansas City Center
Thu 08:29:57 AM 39.2853 -99.1506 268° West 376 433 43,000  Level Kansas City Center
Thu 08:30:58 AM 39.2822 -99.2856 268° West 376 433 43,000  Level Kansas City Center
Thu 08:32:01 AM 39.2800 -99.4211 269° West 377 434 43,000  Level Kansas City Center
Thu 08:33:00 AM 39.2764 -99.5836 268° West 377 434 43,000  Level Kansas City Center
Thu 08:34:04 AM 39.2728 -99.7122 268° West 377 434 43,000  Level Kansas City Center
Thu 08:35:05 AM 39.2692 -99.8625 268° West 376 433 43,000  Level Kansas City Center
Thu 08:36:06 AM 39.2647 -99.9892 267° West 376 433 43,000  Level Kansas City Center
Thu 08:37:06 AM 39.2614 -100.1186 268° West 376 433 43,000  Level Kansas City Center
Thu 08:38:10 AM 39.2792 -100.2678 279° West 381 438 43,000  Level Kansas City Center
Thu 08:39:34 AM 39.3547 -100.4422 299° West 396 456 43,000  Level Denver Center
Thu 08:40:35 AM 39.4158 -100.5811 300° West 398 458 43,000  Level Denver Center
Thu 08:41:36 AM 39.4689 -100.7000 300° West 398 458 43,000  Level Denver Center
Thu 08:42:37 AM 39.5208 -100.8208 299° West 399 459 43,000  Level Denver Center
Thu 08:43:38 AM 39.5819 -100.9592 300° West 399 459 43,000  Level Denver Center
Thu 08:44:39 AM 39.6342 -101.0814 299° West 399 459 43,000  Level Denver Center
Thu 08:45:41 AM 39.6861 -101.2008 300° West 399 459 43,000  Level Denver Center
Thu 08:46:42 AM 39.7458 -101.3406 299° West 397 457 43,000  Level Denver Center
Thu 08:47:43 AM 39.7981 -101.4606 300° West 397 457 43,000  Level Denver Center
Thu 08:48:44 AM 39.8492 -101.5806 299° West 397 457 43,000  Level Denver Center
Thu 08:49:45 AM 39.9081 -101.7200 299° West 394 453 43,000  Level Denver Center
Thu 08:51:47 AM 40.0089 -101.9578 313° West 393 452 43,000  Level Denver Center
Thu 08:52:48 AM 40.0661 -102.0953 299° West 388 447 43,000  Level Denver Center
Thu 08:53:49 AM 40.1153 -102.2147 298° West 389 448 43,000  Level Denver Center
Thu 08:54:50 AM 40.1744 -102.3528 299° West 389 448 43,000  Level Denver Center
Thu 08:55:52 AM 40.2231 -102.4717 298° West 388 447 43,000 -195 Level Denver Center
Thu 08:56:53 AM 40.2722 -102.5900 299° West 388 447 42,600 -738 Descending Denver Center
Thu 08:57:54 AM 40.3308 -102.7317 299° West 388 447 41,500 -1,033 Descending Denver Center
Thu 08:58:55 AM 40.3842 -102.8619 298° West 405 466 40,500 -984 Descending Denver Center
Thu 08:59:56 AM 40.4361 -102.9897 298° West 396 456 39,500 -1,279 Descending Denver Center
Thu 09:00:57 AM 40.4842 -103.1097 298° West 374 430 37,900 -2,164 Descending Denver Center
Thu 09:01:58 AM 40.5358 -103.2350 299° West 389 448 35,100 -1,902 Descending Denver Center
Thu 09:03:00 AM 40.5850 -103.3575 298° West 384 442 34,000 -1,707 Descending Denver Center
Thu 09:04:01 AM 40.6347 -103.4811 298° West 383 441 31,600 -2,311 Descending Denver Center
Thu 09:05:02 AM 40.6833 -103.6039 298° West 382 440 29,300 -2,262 Descending Denver Center
Thu 09:06:03 AM 40.7322 -103.7253 298° West 380 437 27,000 -2,607 Descending Denver Center
Thu 09:07:04 AM 40.7911 -103.8631 299° West 363 418 24,000 -2,634 Descending Denver Center
Thu 09:08:06 AM 40.8397 -103.9731 300° West 352 405 21,600 -2,390 Descending Denver Center
Thu 09:09:07 AM 40.8872 -104.0825 300° West 348 400 19,100 -2,311 Descending Denver Center
Thu 09:10:08 AM 40.9325 -104.1867 300° West 330 380 16,900 -2,213 Descending Denver Center
Thu 09:11:09 AM 40.9742 -104.2814 300° West 310 357 14,600 -2,115 Descending Denver Center
Thu 09:12:10 AM 41.0136 -104.3717 300° West 292 336 12,600 -1,967 Descending Denver Center
Thu 09:14:00 AM 41.0768 -104.6046 297° West  Level FlightAware Approximate
Thu 09:21:00 AM 41.1500 -104.8000 297° West  Level FlightAware Approximate
Thu 09:22:00 AM 41.1556 -104.8105 North  Level Estimated
Thu 09:23:00 AM 41.1556 -104.8105 297° West  Level Estimated
Thu 09:24:00 AM 41.1556 -104.8105 126° Southeast  Level Estimated
Thu 09:25:00 AM 41.1556 -104.8105 297° West  Level Estimated
Thu 09:26:00 AM 41.1556 -104.8105 126° Southeast  Level Estimated
Thu 09:27:00 AM 41.1556 -104.8105 297° West  Level Estimated

Login

Don't have an account? Register now (free) for customized features, flight alerts, and more!